owner,sensor,date,latitude,longitude,vertical_datum,sea_water_practical_salinity,qcFlag 
DISL,ioos:station:DISL:KATA:1,2011-08-01T00:00:00Z,30.2583,-88.2131,4.251,24.91,1111122 
DISL,ioos:station:DISL:KATA:1,2011-08-01T00:30:00Z,30.2583,-88.2131,4.211,24.62,1111122 
DISL,ioos:station:DISL:KATA:1,2011-08-01T01:00:00Z,30.2583,-88.2131,4.197,24.63,1111122 
DISL,ioos:station:DISL:KATA:1,2011-08-01T01:30:00Z,30.2583,-88.2131,4.226,24.5,1111122 
DISL,ioos:station:DISL:KATA:1,2011-08-01T02:00:00Z,30.2583,-88.2131,4.213,24.47,1111122 
DISL,ioos:station:DISL:KATA:1,2011-08-01T02:30:00Z,30.2583,-88.2131,4.201,24.5,1111122 
DISL,ioos:station:DISL:KATA:1,2011-08-01T03:00:00Z,30.2583,-88.2131,4.221,24.61,1111122 
DISL,ioos:station:DISL:KATA:1,2011-08-01T03:30:00Z,30.2583,-88.2131,4.231,24.55,1111122 
DISL,ioos:station:DISL:KATA:1,2011-08-01T04:00:00Z,30.2583,-88.2131,4.261,24.59,1111122 
DISL,ioos:station:DISL:KATA:1,2011-08-01T04:30:00Z,30.2583,-88.2131,4.274,24.56,1111122 
DISL,ioos:station:DISL:KATA:1,2011-08-01T05:00:00Z,30.2583,-88.2131,4.284,24.66,1111122 
DISL,ioos:station:DISL:KATA:1,2011-08-01T05:30:00Z,30.2583,-88.2131,4.304,24.66,1111122 
DISL,ioos:station:DISL:KATA:1,2011-08-01T06:00:00Z,30.2583,-88.2131,4.343,24.65,1111122 
DISL,ioos:station:DISL:KATA:1,2011-08-01T06:30:00Z,30.2583,-88.2131,4.388,24.6,1111122 
DISL,ioos:station:DISL:KATA:1,2011-08-01T07:00:00Z,30.2583,-88.2131,4.414,24.54,1111122 
DISL,ioos:station:DISL:KATA:1,2011-08-01T07:30:00Z,30.2583,-88.2131,4.428,24.63,1111122 
DISL,ioos:station:DISL:KATA:1,2011-08-01T08:00:00Z,30.2583,-88.2131,4.44,24.72,1111122 
DISL,ioos:station:DISL:KATA:1,2011-08-01T08:30:00Z,30.2583,-88.2131,4.442,24.71,1111122 
DISL,ioos:station:DISL:KATA:1,2011-08-01T09:00:00Z,30.2583,-88.2131,4.42,24.73,1111122 
DISL,ioos:station:DISL:KATA:1,2011-08-01T09:30:00Z,30.2583,-88.2131,4.405,24.75,1111122 
DISL,ioos:station:DISL:KATA:1,2011-08-01T10:00:00Z,30.2583,-88.2131,4.394,24.75,1111122 
DISL,ioos:station:DISL:KATA:1,2011-08-01T10:30:00Z,30.2583,-88.2131,4.401,24.71,1111122 
DISL,ioos:station:DISL:KATA:1,2011-08-01T11:00:00Z,30.2583,-88.2131,4.437,24.72,1111122 
DISL,ioos:station:DISL:KATA:1,2011-08-01T11:30:00Z,30.2583,-88.2131,4.482,24.73,1111122 
DISL,ioos:station:DISL:KATA:1,2011-08-01T12:00:00Z,30.2583,-88.2131,4.52,24.75,1111122 
DISL,ioos:station:DISL:KATA:1,2011-08-01T12:30:00Z,30.2583,-88.2131,4.56,24.77,1111122 
DISL,ioos:station:DISL:KATA:1,2011-08-01T13:00:00Z,30.2583,-88.2131,4.592,24.8,1111122 
DISL,ioos:station:DISL:KATA:1,2011-08-01T13:30:00Z,30.2583,-88.2131,4.609,24.81,1111122 
DISL,ioos:station:DISL:KATA:1,2011-08-01T14:00:00Z,30.2583,-88.2131,4.622,24.81,1111122 
DISL,ioos:station:DISL:KATA:1,2011-08-01T14:30:00Z,30.2583,-88.2131,4.628,24.78,1111122 
DISL,ioos:station:DISL:KATA:1,2011-08-01T15:00:00Z,30.2583,-88.2131,4.636,24.76,1111122 
DISL,ioos:station:DISL:KATA:1,2011-08-01T15:30:00Z,30.2583,-88.2131,4.646,24.76,1111122 
DISL,ioos:station:DISL:KATA:1,2011-08-01T16:00:00Z,30.2583,-88.2131,4.656,24.75,1111122 
DISL,ioos:station:DISL:KATA:1,2011-08-01T16:30:00Z,30.2583,-88.2131,4.656,24.73,1111122 
DISL,ioos:station:DISL:KATA:1,2011-08-01T17:00:00Z,30.2583,-88.2131,4.654,24.72,1111122 
DISL,ioos:station:DISL:KATA:1,2011-08-01T17:30:00Z,30.2583,-88.2131,4.654,24.71,1111122 
DISL,ioos:station:DISL:KATA:1,2011-08-01T18:00:00Z,30.2583,-88.2131,4.66,24.69,1111122 
DISL,ioos:station:DISL:KATA:1,2011-08-01T18:30:00Z,30.2583,-88.2131,4.651,24.7,1111122 
DISL,ioos:station:DISL:KATA:1,2011-08-01T19:00:00Z,30.2583,-88.2131,4.64,24.67,1111122 
DISL,ioos:station:DISL:KATA:1,2011-08-01T19:30:00Z,30.2583,-88.2131,4.624,24.67,1111122 
DISL,ioos:station:DISL:KATA:1,2011-08-01T20:00:00Z,30.2583,-88.2131,4.61,24.67,1111122 
DISL,ioos:station:DISL:KATA:1,2011-08-01T20:30:00Z,30.2583,-88.2131,4.557,24.66,1111122 
DISL,ioos:station:DISL:KATA:1,2011-08-01T21:00:00Z,30.2583,-88.2131,4.492,24.63,1111122 
DISL,ioos:station:DISL:KATA:1,2011-08-01T21:30:00Z,30.2583,-88.2131,4.483,24.58,1111122 
DISL,ioos:station:DISL:KATA:1,2011-08-01T22:00:00Z,30.2583,-88.2131,4.433,24.48,1111122 
DISL,ioos:station:DISL:KATA:1,2011-08-01T22:30:00Z,30.2583,-88.2131,4.383,24.38,1111122 
DISL,ioos:station:DISL:KATA:1,2011-08-01T23:00:00Z,30.2583,-88.2131,4.371,24.31,1111122 
DISL,ioos:station:DISL:KATA:1,2011-08-01T23:30:00Z,30.2583,-88.2131,4.344,24.25,1111122 
DISL,ioos:station:DISL:KATA:1,2011-08-02T00:00:00Z,30.2583,-88.2131,4.3,24.25,1111122 
DISL,ioos:station:DISL:KATA:1,2011-08-02T00:30:00Z,30.2583,-88.2131,4.285,24.19,1111122 
DISL,ioos:station:DISL:KATA:1,2011-08-02T01:00:00Z,30.2583,-88.2131,4.265,24.15,1111122 
DISL,ioos:station:DISL:KATA:1,2011-08-02T01:30:00Z,30.2583,-88.2131,4.28,24.07,1111122 
DISL,ioos:station:DISL:KATA:1,2011-08-02T02:00:00Z,30.2583,-88.2131,4.271,24.04,1111122 
DISL,ioos:station:DISL:KATA:1,2011-08-02T02:30:00Z,30.2583,-88.2131,4.26,24.0,1111122 
DISL,ioos:station:DISL:KATA:1,2011-08-02T03:00:00Z,30.2583,-88.2131,4.284,23.97,1111122 
DISL,ioos:station:DISL:KATA:1,2011-08-02T03:30:00Z,30.2583,-88.2131,4.3,23.95,1111122 
DISL,ioos:station:DISL:KATA:1,2011-08-02T04:00:00Z,30.2583,-88.2131,4.296,23.93,1111122 
DISL,ioos:station:DISL:KATA:1,2011-08-02T04:30:00Z,30.2583,-88.2131,4.292,23.92,1111122 
DISL,ioos:station:DISL:KATA:1,2011-08-02T05:00:00Z,30.2583,-88.2131,4.297,23.92,1111122 
DISL,ioos:station:DISL:KATA:1,2011-08-02T05:30:00Z,30.2583,-88.2131,4.316,23.89,1111122 
DISL,ioos:station:DISL:KATA:1,2011-08-02T06:00:00Z,30.2583,-88.2131,4.318,23.89,1111122 
DISL,ioos:station:DISL:KATA:1,2011-08-02T06:30:00Z,30.2583,-88.2131,4.34,23.9,1111122 
DISL,ioos:station:DISL:KATA:1,2011-08-02T07:00:00Z,30.2583,-88.2131,4.379,23.91,1111122 
DISL,ioos:station:DISL:KATA:1,2011-08-02T07:30:00Z,30.2583,-88.2131,4.413,23.92,1111122 
DISL,ioos:station:DISL:KATA:1,2011-08-02T08:00:00Z,30.2583,-88.2131,4.433,23.94,1111122 
DISL,ioos:station:DISL:KATA:1,2011-08-02T08:30:00Z,30.2583,-88.2131,4.431,23.98,1111122 
DISL,ioos:station:DISL:KATA:1,2011-08-02T09:00:00Z,30.2583,-88.2131,4.44,24.04,1111122 
DISL,ioos:station:DISL:KATA:1,2011-08-02T09:30:00Z,30.2583,-88.2131,4.444,24.09,1111122 
DISL,ioos:station:DISL:KATA:1,2011-08-02T10:00:00Z,30.2583,-88.2131,4.422,24.14,1111122 
DISL,ioos:station:DISL:KATA:1,2011-08-02T10:30:00Z,30.2583,-88.2131,4.407,24.16,1111122 
DISL,ioos:station:DISL:KATA:1,2011-08-02T11:00:00Z,30.2583,-88.2131,4.4,24.18,1111122 
DISL,ioos:station:DISL:KATA:1,2011-08-02T11:30:00Z,30.2583,-88.2131,4.379,24.2,1111122 
DISL,ioos:station:DISL:KATA:1,2011-08-02T12:00:00Z,30.2583,-88.2131,4.384,24.17,1111122 
DISL,ioos:station:DISL:KATA:1,2011-08-02T12:30:00Z,30.2583,-88.2131,4.399,24.1,1111122 
DISL,ioos:station:DISL:KATA:1,2011-08-02T13:00:00Z,30.2583,-88.2131,4.423,24.05,1111122 
DISL,ioos:station:DISL:KATA:1,2011-08-02T13:30:00Z,30.2583,-88.2131,4.44,24.03,1111122 
DISL,ioos:station:DISL:KATA:1,2011-08-02T14:00:00Z,30.2583,-88.2131,4.46,24.02,1111122 
DISL,ioos:station:DISL:KATA:1,2011-08-02T14:30:00Z,30.2583,-88.2131,4.478,24.02,1111122 
DISL,ioos:station:DISL:KATA:1,2011-08-02T15:00:00Z,30.2583,-88.2131,4.505,24.0,1111122 
DISL,ioos:station:DISL:KATA:1,2011-08-02T15:30:00Z,30.2583,-88.2131,4.541,23.99,1111122 
DISL,ioos:station:DISL:KATA:1,2011-08-02T16:00:00Z,30.2583,-88.2131,4.561,23.99,1111122 
DISL,ioos:station:DISL:KATA:1,2011-08-02T16:30:00Z,30.2583,-88.2131,4.579,23.99,1111122 
DISL,ioos:station:DISL:KATA:1,2011-08-02T17:00:00Z,30.2583,-88.2131,4.585,24.01,1111122 
DISL,ioos:station:DISL:KATA:1,2011-08-02T17:30:00Z,30.2583,-88.2131,4.568,24.04,1111122 
DISL,ioos:station:DISL:KATA:1,2011-08-02T18:00:00Z,30.2583,-88.2131,4.556,24.05,1111122 
DISL,ioos:station:DISL:KATA:1,2011-08-02T18:30:00Z,30.2583,-88.2131,4.532,24.06,1111122 
DISL,ioos:station:DISL:KATA:1,2011-08-02T19:00:00Z,30.2583,-88.2131,4.517,24.07,1111122 
DISL,ioos:station:DISL:KATA:1,2011-08-02T19:30:00Z,30.2583,-88.2131,4.521,24.07,1111122 
DISL,ioos:station:DISL:KATA:1,2011-08-02T20:00:00Z,30.2583,-88.2131,4.522,24.09,1111122 
DISL,ioos:station:DISL:KATA:1,2011-08-02T20:30:00Z,30.2583,-88.2131,4.534,24.09,1111122 
DISL,ioos:station:DISL:KATA:1,2011-08-02T21:00:00Z,30.2583,-88.2131,4.545,24.08,1111122 
DISL,ioos:station:DISL:KATA:1,2011-08-02T21:30:00Z,30.2583,-88.2131,4.52,24.08,1111122 
DISL,ioos:station:DISL:KATA:1,2011-08-02T22:00:00Z,30.2583,-88.2131,4.506,24.06,1111122 
DISL,ioos:station:DISL:KATA:1,2011-08-02T22:30:00Z,30.2583,-88.2131,4.47,24.04,1111122 
DISL,ioos:station:DISL:KATA:1,2011-08-02T23:00:00Z,30.2583,-88.2131,4.421,24.01,1111122 
DISL,ioos:station:DISL:KATA:1,2011-08-02T23:30:00Z,30.2583,-88.2131,4.389,23.98,1111122 
DISL,ioos:station:DISL:KATA:1,2011-08-03T00:00:00Z,30.2583,-88.2131,4.361,23.96,1111122 
DISL,ioos:station:DISL:KATA:1,2011-08-03T00:30:00Z,30.2583,-88.2131,4.341,23.92,1111122 
DISL,ioos:station:DISL:KATA:1,2011-08-03T01:00:00Z,30.2583,-88.2131,4.336,23.5,1111122 
DISL,ioos:station:DISL:KATA:1,2011-08-03T01:30:00Z,30.2583,-88.2131,4.344,23.88,1111122 
DISL,ioos:station:DISL:KATA:1,2011-08-03T02:00:00Z,30.2583,-88.2131,4.374,23.87,1111122 
DISL,ioos:station:DISL:KATA:1,2011-08-03T02:30:00Z,30.2583,-88.2131,4.375,23.87,1111122 
DISL,ioos:station:DISL:KATA:1,2011-08-03T03:00:00Z,30.2583,-88.2131,4.402,23.87,1111122 
DISL,ioos:station:DISL:KATA:1,2011-08-03T03:30:00Z,30.2583,-88.2131,4.419,23.86,1111122 
DISL,ioos:station:DISL:KATA:1,2011-08-03T04:00:00Z,30.2583,-88.2131,4.435,23.85,1111122 
DISL,ioos:station:DISL:KATA:1,2011-08-03T04:30:00Z,30.2583,-88.2131,4.447,23.85,1111122 
DISL,ioos:station:DISL:KATA:1,2011-08-03T05:00:00Z,30.2583,-88.2131,4.441,23.86,1111122 
DISL,ioos:station:DISL:KATA:1,2011-08-03T05:30:00Z,30.2583,-88.2131,4.444,23.85,1111122 
DISL,ioos:station:DISL:KATA:1,2011-08-03T06:00:00Z,30.2583,-88.2131,4.435,23.86,1111122 
DISL,ioos:station:DISL:KATA:1,2011-08-03T06:30:00Z,30.2583,-88.2131,4.433,23.87,1111122 
DISL,ioos:station:DISL:KATA:1,2011-08-03T07:00:00Z,30.2583,-88.2131,4.427,23.87,1111122 
DISL,ioos:station:DISL:KATA:1,2011-08-03T07:30:00Z,30.2583,-88.2131,4.43,23.87,1111122 
DISL,ioos:station:DISL:KATA:1,2011-08-03T08:00:00Z,30.2583,-88.2131,4.438,23.86,1111122 
DISL,ioos:station:DISL:KATA:1,2011-08-03T08:30:00Z,30.2583,-88.2131,4.454,23.86,1111122 
DISL,ioos:station:DISL:KATA:1,2011-08-03T09:00:00Z,30.2583,-88.2131,4.474,23.86,1111122 
DISL,ioos:station:DISL:KATA:1,2011-08-03T09:30:00Z,30.2583,-88.2131,4.48,23.86,1111122 
DISL,ioos:station:DISL:KATA:1,2011-08-03T10:00:00Z,30.2583,-88.2131,4.48,23.86,1111122 
DISL,ioos:station:DISL:KATA:1,2011-08-03T10:30:00Z,30.2583,-88.2131,4.453,23.85,1111122 
DISL,ioos:station:DISL:KATA:1,2011-08-03T11:00:00Z,30.2583,-88.2131,4.413,23.84,1111122 
DISL,ioos:station:DISL:KATA:1,2011-08-03T11:30:00Z,30.2583,-88.2131,4.381,23.85,1111122 
DISL,ioos:station:DISL:KATA:1,2011-08-03T12:00:00Z,30.2583,-88.2131,4.364,23.83,1111122 
DISL,ioos:station:DISL:KATA:1,2011-08-03T12:30:00Z,30.2583,-88.2131,4.354,23.84,1111122 
DISL,ioos:station:DISL:KATA:1,2011-08-03T13:00:00Z,30.2583,-88.2131,4.345,23.84,1111122 
DISL,ioos:station:DISL:KATA:1,2011-08-03T13:30:00Z,30.2583,-88.2131,4.355,23.83,1111122 
DISL,ioos:station:DISL:KATA:1,2011-08-03T14:00:00Z,30.2583,-88.2131,4.368,23.8,1111122 
DISL,ioos:station:DISL:KATA:1,2011-08-03T14:30:00Z,30.2583,-88.2131,4.385,23.8,1111122 
DISL,ioos:station:DISL:KATA:1,2011-08-03T15:00:00Z,30.2583,-88.2131,4.403,23.79,1111122 
DISL,ioos:station:DISL:KATA:1,2011-08-03T15:30:00Z,30.2583,-88.2131,4.429,23.79,1111122 
DISL,ioos:station:DISL:KATA:1,2011-08-03T16:00:00Z,30.2583,-88.2131,4.441,23.8,1111122 
DISL,ioos:station:DISL:KATA:1,2011-08-03T16:30:00Z,30.2583,-88.2131,4.452,23.79,1111122 
DISL,ioos:station:DISL:KATA:1,2011-08-03T17:00:00Z,30.2583,-88.2131,4.453,23.79,1111122 
DISL,ioos:station:DISL:KATA:1,2011-08-03T17:30:00Z,30.2583,-88.2131,4.449,23.78,1111122 
DISL,ioos:station:DISL:KATA:1,2011-08-03T18:00:00Z,30.2583,-88.2131,4.443,23.78,1111122 
DISL,ioos:station:DISL:KATA:1,2011-08-03T18:30:00Z,30.2583,-88.2131,4.435,23.79,1111122 
DISL,ioos:station:DISL:KATA:1,2011-08-03T19:00:00Z,30.2583,-88.2131,4.439,23.79,1111122 
DISL,ioos:station:DISL:KATA:1,2011-08-03T19:30:00Z,30.2583,-88.2131,4.451,23.79,1111122 
DISL,ioos:station:DISL:KATA:1,2011-08-03T20:00:00Z,30.2583,-88.2131,4.459,23.79,1111122 
DISL,ioos:station:DISL:KATA:1,2011-08-03T20:30:00Z,30.2583,-88.2131,4.47,23.79,1111122 
DISL,ioos:station:DISL:KATA:1,2011-08-03T21:00:00Z,30.2583,-88.2131,4.478,23.78,1111122 
DISL,ioos:station:DISL:KATA:1,2011-08-03T21:30:00Z,30.2583,-88.2131,4.483,23.78,1111122 
DISL,ioos:station:DISL:KATA:1,2011-08-03T22:00:00Z,30.2583,-88.2131,4.484,23.78,1111122 
DISL,ioos:station:DISL:KATA:1,2011-08-03T22:30:00Z,30.2583,-88.2131,4.466,23.78,1111122 
DISL,ioos:station:DISL:KATA:1,2011-08-03T23:00:00Z,30.2583,-88.2131,4.452,23.78,1111122 
DISL,ioos:station:DISL:KATA:1,2011-08-03T23:30:00Z,30.2583,-88.2131,4.434,23.79,1111122 
DISL,ioos:station:DISL:KATA:1,2011-08-04T00:00:00Z,30.2583,-88.2131,4.416,23.79,1111122 
DISL,ioos:station:DISL:KATA:1,2011-08-04T00:30:00Z,30.2583,-88.2131,4.402,23.78,1111122 
DISL,ioos:station:DISL:KATA:1,2011-08-04T01:00:00Z,30.2583,-88.2131,4.402,23.78,1111122 
DISL,ioos:station:DISL:KATA:1,2011-08-04T01:30:00Z,30.2583,-88.2131,4.414,23.76,1111122 
DISL,ioos:station:DISL:KATA:1,2011-08-04T02:00:00Z,30.2583,-88.2131,4.432,23.75,1111122 
DISL,ioos:station:DISL:KATA:1,2011-08-04T02:30:00Z,30.2583,-88.2131,4.46,23.74,1111122 
DISL,ioos:station:DISL:KATA:1,2011-08-04T03:00:00Z,30.2583,-88.2131,4.483,23.75,1111122 
DISL,ioos:station:DISL:KATA:1,2011-08-04T03:30:00Z,30.2583,-88.2131,4.501,23.78,1111122 
DISL,ioos:station:DISL:KATA:1,2011-08-04T04:00:00Z,30.2583,-88.2131,4.524,23.78,1111122 
DISL,ioos:station:DISL:KATA:1,2011-08-04T04:30:00Z,30.2583,-88.2131,4.534,23.81,1111122 
DISL,ioos:station:DISL:KATA:1,2011-08-04T05:00:00Z,30.2583,-88.2131,4.541,23.93,1111122 
DISL,ioos:station:DISL:KATA:1,2011-08-04T05:30:00Z,30.2583,-88.2131,4.546,23.95,1111122 
DISL,ioos:station:DISL:KATA:1,2011-08-04T06:00:00Z,30.2583,-88.2131,4.542,23.94,1111122 
DISL,ioos:station:DISL:KATA:1,2011-08-04T06:30:00Z,30.2583,-88.2131,4.541,23.94,1111122 
DISL,ioos:station:DISL:KATA:1,2011-08-04T07:00:00Z,30.2583,-88.2131,4.544,23.94,1111122 
DISL,ioos:station:DISL:KATA:1,2011-08-04T07:30:00Z,30.2583,-88.2131,4.551,23.95,1111122 
DISL,ioos:station:DISL:KATA:1,2011-08-04T08:00:00Z,30.2583,-88.2131,4.552,23.96,1111122 
DISL,ioos:station:DISL:KATA:1,2011-08-04T08:30:00Z,30.2583,-88.2131,4.549,23.97,1111122 
DISL,ioos:station:DISL:KATA:1,2011-08-04T09:00:00Z,30.2583,-88.2131,4.546,23.98,1111122 
DISL,ioos:station:DISL:KATA:1,2011-08-04T09:30:00Z,30.2583,-88.2131,4.545,24.0,1111122 
DISL,ioos:station:DISL:KATA:1,2011-08-04T10:00:00Z,30.2583,-88.2131,4.538,24.0,1111122 
DISL,ioos:station:DISL:KATA:1,2011-08-04T10:30:00Z,30.2583,-88.2131,4.533,24.01,1111122 
DISL,ioos:station:DISL:KATA:1,2011-08-04T11:00:00Z,30.2583,-88.2131,4.519,24.0,1111122 
DISL,ioos:station:DISL:KATA:1,2011-08-04T11:30:00Z,30.2583,-88.2131,4.492,24.02,1111122 
DISL,ioos:station:DISL:KATA:1,2011-08-04T12:00:00Z,30.2583,-88.2131,4.458,24.0,1111122 
DISL,ioos:station:DISL:KATA:1,2011-08-04T12:30:00Z,30.2583,-88.2131,4.417,23.99,1111122 
DISL,ioos:station:DISL:KATA:1,2011-08-04T13:00:00Z,30.2583,-88.2131,4.383,23.99,1111122 
DISL,ioos:station:DISL:KATA:1,2011-08-04T13:30:00Z,30.2583,-88.2131,4.361,23.98,1111122 
DISL,ioos:station:DISL:KATA:1,2011-08-04T14:00:00Z,30.2583,-88.2131,4.34,23.96,1111122 
DISL,ioos:station:DISL:KATA:1,2011-08-04T14:30:00Z,30.2583,-88.2131,4.33,23.95,1111122 
DISL,ioos:station:DISL:KATA:1,2011-08-04T15:00:00Z,30.2583,-88.2131,4.327,23.93,1111122 
DISL,ioos:station:DISL:KATA:1,2011-08-04T15:30:00Z,30.2583,-88.2131,4.326,23.91,1111122 
DISL,ioos:station:DISL:KATA:1,2011-08-04T16:00:00Z,30.2583,-88.2131,4.33,23.9,1111122 
DISL,ioos:station:DISL:KATA:1,2011-08-04T16:30:00Z,30.2583,-88.2131,4.338,23.99,1111122 
DISL,ioos:station:DISL:KATA:1,2011-08-04T17:00:00Z,30.2583,-88.2131,4.335,23.9,1111122 
DISL,ioos:station:DISL:KATA:1,2011-08-04T17:30:00Z,30.2583,-88.2131,4.348,24.3,1111122 
DISL,ioos:station:DISL:KATA:1,2011-08-04T18:00:00Z,30.2583,-88.2131,4.351,24.3,1111122 
DISL,ioos:station:DISL:KATA:1,2011-08-04T18:30:00Z,30.2583,-88.2131,4.352,24.29,1111122 
DISL,ioos:station:DISL:KATA:1,2011-08-04T19:00:00Z,30.2583,-88.2131,4.341,24.33,1111122 
DISL,ioos:station:DISL:KATA:1,2011-08-04T19:30:00Z,30.2583,-88.2131,4.319,24.28,1111122 
DISL,ioos:station:DISL:KATA:1,2011-08-04T20:00:00Z,30.2583,-88.2131,4.308,24.27,1111122 
DISL,ioos:station:DISL:KATA:1,2011-08-04T20:30:00Z,30.2583,-88.2131,4.307,24.27,1111122 
DISL,ioos:station:DISL:KATA:1,2011-08-04T21:00:00Z,30.2583,-88.2131,4.317,24.32,1111122 
DISL,ioos:station:DISL:KATA:1,2011-08-04T21:30:00Z,30.2583,-88.2131,4.344,24.33,1111122 
DISL,ioos:station:DISL:KATA:1,2011-08-04T22:00:00Z,30.2583,-88.2131,4.36,24.34,1111122 
DISL,ioos:station:DISL:KATA:1,2011-08-04T22:30:00Z,30.2583,-88.2131,4.383,24.33,1111122 
DISL,ioos:station:DISL:KATA:1,2011-08-04T23:00:00Z,30.2583,-88.2131,4.385,24.32,1111122 
DISL,ioos:station:DISL:KATA:1,2011-08-04T23:30:00Z,30.2583,-88.2131,4.397,24.32,1111122 
DISL,ioos:station:DISL:KATA:1,2011-08-05T00:00:00Z,30.2583,-88.2131,4.401,24.32,1111122 
DISL,ioos:station:DISL:KATA:1,2011-08-05T00:30:00Z,30.2583,-88.2131,4.397,24.3,1111122 
DISL,ioos:station:DISL:KATA:1,2011-08-05T01:00:00Z,30.2583,-88.2131,4.395,24.23,1111122 
DISL,ioos:station:DISL:KATA:1,2011-08-05T01:30:00Z,30.2583,-88.2131,4.398,24.31,1111122 
DISL,ioos:station:DISL:KATA:1,2011-08-05T02:00:00Z,30.2583,-88.2131,4.418,24.29,1111122 
DISL,ioos:station:DISL:KATA:1,2011-08-05T02:30:00Z,30.2583,-88.2131,4.436,24.28,1111122 
DISL,ioos:station:DISL:KATA:1,2011-08-05T03:00:00Z,30.2583,-88.2131,4.459,24.3,1111122 
DISL,ioos:station:DISL:KATA:1,2011-08-05T03:30:00Z,30.2583,-88.2131,4.492,24.33,1111122 
DISL,ioos:station:DISL:KATA:1,2011-08-05T04:00:00Z,30.2583,-88.2131,4.53,24.31,1111122 
DISL,ioos:station:DISL:KATA:1,2011-08-05T04:30:00Z,30.2583,-88.2131,4.606,24.51,1111122 
DISL,ioos:station:DISL:KATA:1,2011-08-05T05:00:00Z,30.2583,-88.2131,4.548,24.97,1111122 
DISL,ioos:station:DISL:KATA:1,2011-08-05T05:30:00Z,30.2583,-88.2131,4.55,25.0,1111122 
DISL,ioos:station:DISL:KATA:1,2011-08-05T06:00:00Z,30.2583,-88.2131,4.411,24.98,1111122 
DISL,ioos:station:DISL:KATA:1,2011-08-05T06:30:00Z,30.2583,-88.2131,4.341,24.93,1111122 
DISL,ioos:station:DISL:KATA:1,2011-08-05T07:00:00Z,30.2583,-88.2131,4.331,24.88,1111122 
DISL,ioos:station:DISL:KATA:1,2011-08-05T07:30:00Z,30.2583,-88.2131,4.378,24.86,1111122 
DISL,ioos:station:DISL:KATA:1,2011-08-05T08:00:00Z,30.2583,-88.2131,4.412,24.88,1111122 
DISL,ioos:station:DISL:KATA:1,2011-08-05T08:30:00Z,30.2583,-88.2131,4.461,24.87,1111122 
DISL,ioos:station:DISL:KATA:1,2011-08-05T09:00:00Z,30.2583,-88.2131,4.511,24.88,1111122 
DISL,ioos:station:DISL:KATA:1,2011-08-05T09:30:00Z,30.2583,-88.2131,4.527,24.92,1111122 
DISL,ioos:station:DISL:KATA:1,2011-08-05T10:00:00Z,30.2583,-88.2131,4.605,24.94,1111122 
DISL,ioos:station:DISL:KATA:1,2011-08-05T10:30:00Z,30.2583,-88.2131,4.665,24.96,1111122 
DISL,ioos:station:DISL:KATA:1,2011-08-05T11:00:00Z,30.2583,-88.2131,4.693,24.96,1111122 
DISL,ioos:station:DISL:KATA:1,2011-08-05T11:30:00Z,30.2583,-88.2131,4.708,24.98,1111122 
DISL,ioos:station:DISL:KATA:1,2011-08-05T12:00:00Z,30.2583,-88.2131,4.662,24.98,1111122 
DISL,ioos:station:DISL:KATA:1,2011-08-05T12:30:00Z,30.2583,-88.2131,4.576,24.99,1111122 
DISL,ioos:station:DISL:KATA:1,2011-08-05T13:00:00Z,30.2583,-88.2131,4.466,24.98,1111122 
DISL,ioos:station:DISL:KATA:1,2011-08-05T13:30:00Z,30.2583,-88.2131,4.369,24.96,1111122 
DISL,ioos:station:DISL:KATA:1,2011-08-05T14:00:00Z,30.2583,-88.2131,4.323,24.94,1111122 
DISL,ioos:station:DISL:KATA:1,2011-08-05T14:30:00Z,30.2583,-88.2131,4.279,24.93,1111122 
DISL,ioos:station:DISL:KATA:1,2011-08-05T15:00:00Z,30.2583,-88.2131,4.258,24.92,1111122 
DISL,ioos:station:DISL:KATA:1,2011-08-05T15:30:00Z,30.2583,-88.2131,4.265,24.9,1111122 
DISL,ioos:station:DISL:KATA:1,2011-08-05T16:00:00Z,30.2583,-88.2131,4.248,24.9,1111122 
DISL,ioos:station:DISL:KATA:1,2011-08-05T16:30:00Z,30.2583,-88.2131,4.252,24.86,1111122 
DISL,ioos:station:DISL:KATA:1,2011-08-05T17:00:00Z,30.2583,-88.2131,4.245,24.83,1111122 
DISL,ioos:station:DISL:KATA:1,2011-08-05T17:30:00Z,30.2583,-88.2131,4.233,24.81,1111122 
DISL,ioos:station:DISL:KATA:1,2011-08-05T18:00:00Z,30.2583,-88.2131,4.216,24.77,1111122 
DISL,ioos:station:DISL:KATA:1,2011-08-05T18:30:00Z,30.2583,-88.2131,4.204,24.75,1111122 
DISL,ioos:station:DISL:KATA:1,2011-08-05T19:00:00Z,30.2583,-88.2131,4.2,24.74,1111122 
DISL,ioos:station:DISL:KATA:1,2011-08-05T19:30:00Z,30.2583,-88.2131,4.207,24.75,1111122 
DISL,ioos:station:DISL:KATA:1,2011-08-05T20:00:00Z,30.2583,-88.2131,4.213,24.73,1111122 
DISL,ioos:station:DISL:KATA:1,2011-08-05T20:30:00Z,30.2583,-88.2131,4.233,24.73,1111122 
DISL,ioos:station:DISL:KATA:1,2011-08-05T21:00:00Z,30.2583,-88.2131,4.244,24.71,1111122 
DISL,ioos:station:DISL:KATA:1,2011-08-05T21:30:00Z,30.2583,-88.2131,4.271,24.7,1111122 
DISL,ioos:station:DISL:KATA:1,2011-08-05T22:00:00Z,30.2583,-88.2131,4.284,24.7,1111122 
DISL,ioos:station:DISL:KATA:1,2011-08-05T22:30:00Z,30.2583,-88.2131,4.308,24.69,1111122 
DISL,ioos:station:DISL:KATA:1,2011-08-05T23:00:00Z,30.2583,-88.2131,4.323,24.73,1111122 
DISL,ioos:station:DISL:KATA:1,2011-08-05T23:30:00Z,30.2583,-88.2131,4.348,24.74,1111122 
DISL,ioos:station:DISL:KATA:1,2011-08-06T00:00:00Z,30.2583,-88.2131,4.373,24.74,1111122 
DISL,ioos:station:DISL:KATA:1,2011-08-06T00:30:00Z,30.2583,-88.2131,4.382,24.75,1111122 
DISL,ioos:station:DISL:KATA:1,2011-08-06T01:00:00Z,30.2583,-88.2131,4.399,24.74,1111122 
DISL,ioos:station:DISL:KATA:1,2011-08-06T01:30:00Z,30.2583,-88.2131,4.423,24.73,1111122 
DISL,ioos:station:DISL:KATA:1,2011-08-06T02:00:00Z,30.2583,-88.2131,4.42,24.76,1111122 
DISL,ioos:station:DISL:KATA:1,2011-08-06T02:30:00Z,30.2583,-88.2131,4.445,24.76,1111122 
DISL,ioos:station:DISL:KATA:1,2011-08-06T03:00:00Z,30.2583,-88.2131,4.463,24.75,1111122 
DISL,ioos:station:DISL:KATA:1,2011-08-06T03:30:00Z,30.2583,-88.2131,4.465,24.75,1111122 
DISL,ioos:station:DISL:KATA:1,2011-08-06T04:00:00Z,30.2583,-88.2131,4.469,24.75,1111122 
DISL,ioos:station:DISL:KATA:1,2011-08-06T04:30:00Z,30.2583,-88.2131,4.49,24.77,1111122 
DISL,ioos:station:DISL:KATA:1,2011-08-06T05:00:00Z,30.2583,-88.2131,4.52,24.74,1111122 
DISL,ioos:station:DISL:KATA:1,2011-08-06T05:30:00Z,30.2583,-88.2131,4.572,24.76,1111122 
DISL,ioos:station:DISL:KATA:1,2011-08-06T06:00:00Z,30.2583,-88.2131,4.616,24.78,1111122 
DISL,ioos:station:DISL:KATA:1,2011-08-06T06:30:00Z,30.2583,-88.2131,4.648,24.78,1111122 
DISL,ioos:station:DISL:KATA:1,2011-08-06T07:00:00Z,30.2583,-88.2131,4.679,24.79,1111122 
DISL,ioos:station:DISL:KATA:1,2011-08-06T07:30:00Z,30.2583,-88.2131,4.697,24.82,1111122 
DISL,ioos:station:DISL:KATA:1,2011-08-06T08:00:00Z,30.2583,-88.2131,4.706,24.82,1111122 
DISL,ioos:station:DISL:KATA:1,2011-08-06T08:30:00Z,30.2583,-88.2131,4.712,24.82,1111122 
DISL,ioos:station:DISL:KATA:1,2011-08-06T09:00:00Z,30.2583,-88.2131,4.711,24.83,1111122 
DISL,ioos:station:DISL:KATA:1,2011-08-06T09:30:00Z,30.2583,-88.2131,4.7,24.83,1111122 
DISL,ioos:station:DISL:KATA:1,2011-08-06T10:00:00Z,30.2583,-88.2131,4.682,24.83,1111122 
DISL,ioos:station:DISL:KATA:1,2011-08-06T10:30:00Z,30.2583,-88.2131,4.675,24.83,1111122 
DISL,ioos:station:DISL:KATA:1,2011-08-06T11:00:00Z,30.2583,-88.2131,4.654,24.84,1111122 
DISL,ioos:station:DISL:KATA:1,2011-08-06T11:30:00Z,30.2583,-88.2131,4.63,24.83,1111122 
DISL,ioos:station:DISL:KATA:1,2011-08-06T12:00:00Z,30.2583,-88.2131,4.605,24.84,1111122 
DISL,ioos:station:DISL:KATA:1,2011-08-06T12:30:00Z,30.2583,-88.2131,4.571,24.82,1111122 
DISL,ioos:station:DISL:KATA:1,2011-08-06T13:00:00Z,30.2583,-88.2131,4.539,24.81,1111122 
DISL,ioos:station:DISL:KATA:1,2011-08-06T13:30:00Z,30.2583,-88.2131,4.504,24.8,1111122 
DISL,ioos:station:DISL:KATA:1,2011-08-06T14:00:00Z,30.2583,-88.2131,4.456,24.81,1111122 